Staples, MN

11:25 AM CST on February 26, 2017 (GMT -0600)
Staples Municipal

Weather History for KSAZ - November, 2012

Change the Weather History Date:

Thursday, November 29, 2012

  Actual Average Record
Temperature  
Mean Temperature 20 °F -  
Max Temperature 26 °F 30 °F 53 °F (1998)
Min Temperature 15 °F 15 °F 0 °F (2007)
Degree Days  
Heating Degree Days 44    
Moisture  
Dew Point 21 °F    
Average Humidity 89    
Maximum Humidity 100    
Minimum Humidity 80    
Precipitation  
Precipitation 0.00 in - - ()
Sea Level Pressure  
Sea Level Pressure 30.10 in    
Wind  
Wind Speed 4 mph (ENE)    
Max Wind Speed 10 mph    
Max Gust Speed 18 mph    
Visibility 8 miles    
Events      
Averages and records for this station are not official NWS values.
T = Trace of Precipitation, MM = Missing Value Source: NWS Daily Summary

Daily Weather History Graph

Daily Weather History Graph

Search for Another Location

Airport or City:

Trip Planner

Search our weather history database for the weather conditions in past years. The results will help you decide how hot, cold, wet, or windy it might be!

Date:

Astronomy

Nov. 29, 2012 Rise Set
Actual Time 7:40 AM CST 4:35 PM CST
Civil Twilight 7:06 AM CST 5:09 PM CST
Nautical Twilight 6:28 AM CST 5:46 PM CST
Astronomical Twilight 5:52 AM CST 6:22 PM CST
Moon 5:38 PM CST (11/29) 8:28 AM CST (11/29)
Length of Visible Light 10h 02m
Length of Day
8h 54m
Full, 99% of the Moon is Illuminated
Nov 29
Full
Dec 6
Last Quarter
Dec 13
New
Dec 19
First Quarter
Dec 28
Full

Hourly Weather History & Observations

Time (CST) Temp. Windchill Dew Point Humidity Pressure Visibility Wind Dir Wind Speed Gust Speed Precip Events Conditions
12:14 AM 21.2 °F 16.4 °F 21.2 °F 100% 30.06 in 7.0 mi North 3.5 mph - N/A   Scattered Clouds
12:33 AM 21.2 °F - 19.4 °F 93% 30.06 in 7.0 mi Calm Calm - N/A   Clear
12:53 AM 19.4 °F - 19.4 °F 100% 30.05 in 5.0 mi Calm Calm - N/A   Clear
1:14 AM 21.2 °F - 19.4 °F 93% 30.04 in 5.0 mi Calm Calm - N/A   Scattered Clouds
1:33 AM 19.4 °F - 19.4 °F 100% 30.04 in 5.0 mi Calm Calm - N/A   Scattered Clouds
1:53 AM 19.4 °F - 19.4 °F 100% 30.04 in 3.0 mi Calm Calm - N/A   Clear
2:14 AM 19.4 °F - 19.4 °F 100% 30.05 in 5.0 mi Calm Calm - N/A   Clear
2:33 AM 19.4 °F - 19.4 °F 100% 30.06 in 5.0 mi Calm Calm - N/A   Clear
2:53 AM 21.2 °F - 21.2 °F 100% 30.06 in 5.0 mi Calm Calm - N/A   Clear
3:14 AM 19.4 °F - 19.4 °F 100% 30.06 in 5.0 mi Calm Calm - N/A   Clear
3:33 AM 15.8 °F - 14.0 °F 93% 30.07 in 3.0 mi Calm Calm - N/A   Clear
4:14 AM 17.6 °F 12.3 °F 17.6 °F 100% 30.07 in 3.0 mi North 3.5 mph - N/A   Clear
4:33 AM 17.6 °F 12.3 °F 17.6 °F 100% 30.07 in 5.0 mi NNE 3.5 mph - N/A   Clear
4:53 AM 19.4 °F 14.3 °F 19.4 °F 100% 30.07 in 5.0 mi NNE 3.5 mph - N/A   Clear
5:14 AM 19.4 °F 12.8 °F 17.6 °F 93% 30.07 in 5.0 mi NNE 4.6 mph - N/A   Clear
5:33 AM 19.4 °F 12.8 °F 19.4 °F 100% 30.08 in 7.0 mi NE 4.6 mph - N/A   Clear
5:53 AM 19.4 °F - 19.4 °F 100% 30.08 in 7.0 mi Calm Calm - N/A   Scattered Clouds
6:14 AM 19.4 °F - 19.4 °F 100% 30.09 in 7.0 mi Calm Calm - N/A   Overcast
6:33 AM 21.2 °F 16.4 °F 21.2 °F 100% 30.09 in 7.0 mi NE 3.5 mph - N/A   Overcast
6:53 AM 21.2 °F 16.4 °F 21.2 °F 100% 30.09 in 7.0 mi ENE 3.5 mph - N/A   Overcast
7:14 AM 23.0 °F 18.4 °F 21.2 °F 93% 30.10 in 7.0 mi ENE 3.5 mph - N/A   Overcast
7:33 AM 24.8 °F 17.9 °F 21.2 °F 86% 30.10 in 7.0 mi ENE 5.8 mph - N/A   Overcast
7:54 AM 24.8 °F 16.9 °F 23.0 °F 93% 30.09 in 7.0 mi ENE 6.9 mph - N/A   Overcast
8:13 AM 24.8 °F 19.1 °F 23.0 °F 93% 30.11 in 5.0 mi ENE 4.6 mph - N/A   Overcast
8:33 AM 24.8 °F 16.1 °F 23.0 °F 93% 30.11 in 5.0 mi ENE 8.1 mph - N/A   Overcast
8:54 AM 24.8 °F 16.1 °F 23.0 °F 93% 30.12 in 5.0 mi ENE 8.1 mph - N/A   Overcast
9:13 AM 24.8 °F 17.9 °F 23.0 °F 93% 30.12 in 5.0 mi East 5.8 mph - N/A   Overcast
9:33 AM 24.8 °F 16.9 °F 23.0 °F 93% 30.11 in 5.0 mi East 6.9 mph - N/A   Overcast
9:54 AM 24.8 °F 17.9 °F 23.0 °F 93% 30.12 in 5.0 mi ENE 5.8 mph - N/A   Overcast
10:13 AM 24.8 °F 16.1 °F 23.0 °F 93% 30.13 in 7.0 mi ENE 8.1 mph - N/A   Overcast
10:34 AM 24.8 °F 16.1 °F 21.2 °F 86% 30.13 in 7.0 mi ENE 8.1 mph - N/A   Overcast
10:53 AM 24.8 °F 16.1 °F 21.2 °F 86% 30.14 in 7.0 mi ENE 8.1 mph - N/A   Overcast
11:13 AM 24.8 °F 16.9 °F 21.2 °F 86% 30.14 in 7.0 mi NE 6.9 mph - N/A   Overcast
11:34 AM 24.8 °F 16.1 °F 21.2 °F 86% 30.13 in 7.0 mi ENE 8.1 mph - N/A   Overcast
11:53 AM 24.8 °F 16.9 °F 21.2 °F 86% 30.13 in 7.0 mi ENE 6.9 mph - N/A   Overcast
12:13 PM 24.8 °F 16.1 °F 21.2 °F 86% 30.12 in 7.0 mi ENE 8.1 mph - N/A   Overcast
12:34 PM 24.8 °F 16.9 °F 21.2 °F 86% 30.11 in 7.0 mi East 6.9 mph - N/A   Overcast
12:53 PM 24.8 °F 16.1 °F 21.2 °F 86% 30.11 in 7.0 mi East 8.1 mph - N/A   Overcast
1:13 PM 24.8 °F 16.9 °F 21.2 °F 86% 30.11 in 7.0 mi ENE 6.9 mph - N/A   Overcast
1:34 PM 26.6 °F 22.6 °F 21.2 °F 80% 30.10 in 10.0 mi ENE 3.5 mph - N/A   Overcast
1:53 PM 26.6 °F 18.2 °F 21.2 °F 80% 30.09 in 10.0 mi East 8.1 mph - N/A   Overcast
2:13 PM 26.6 °F 19.1 °F 21.2 °F 80% 30.09 in 10.0 mi ENE 6.9 mph - N/A   Overcast
2:34 PM 26.6 °F 18.2 °F 21.2 °F 80% 30.09 in 10.0 mi ENE 8.1 mph - N/A   Overcast
2:53 PM 26.6 °F 18.2 °F 21.2 °F 80% 30.09 in 10.0 mi ENE 8.1 mph - N/A   Overcast
3:13 PM 26.6 °F 18.2 °F 21.2 °F 80% 30.08 in 10.0 mi ENE 8.1 mph - N/A   Overcast
3:34 PM 26.6 °F 17.5 °F 21.2 °F 80% 30.08 in 10.0 mi East 9.2 mph - N/A   Overcast
3:53 PM 26.6 °F 20.0 °F 21.2 °F 80% 30.09 in 10.0 mi ENE 5.8 mph - N/A   Overcast
4:13 PM 24.8 °F 15.3 °F 21.2 °F 86% 30.09 in 10.0 mi East 9.2 mph - N/A   Overcast
4:34 PM 24.8 °F 15.3 °F 21.2 °F 86% 30.09 in 10.0 mi ENE 9.2 mph - N/A   Overcast
4:53 PM 24.8 °F 14.6 °F 21.2 °F 86% 30.10 in 10.0 mi ENE 10.4 mph 17.3 mph N/A   Overcast
5:13 PM 24.8 °F 16.9 °F 21.2 °F 86% 30.10 in 10.0 mi East 6.9 mph - N/A   Overcast
5:33 PM 24.8 °F 15.3 °F 21.2 °F 86% 30.10 in 10.0 mi East 9.2 mph - N/A   Overcast
5:53 PM 24.8 °F 15.3 °F 21.2 °F 86% 30.11 in 10.0 mi East 9.2 mph - N/A   Overcast
6:14 PM 24.8 °F 16.9 °F 21.2 °F 86% 30.11 in 10.0 mi East 6.9 mph - N/A   Overcast
6:33 PM 24.8 °F 17.9 °F 21.2 °F 86% 30.12 in 10.0 mi ENE 5.8 mph - N/A   Overcast
6:54 PM 24.8 °F 16.1 °F 21.2 °F 86% 30.11 in 10.0 mi East 8.1 mph - N/A   Overcast
7:13 PM 24.8 °F 16.9 °F 21.2 °F 86% 30.11 in 10.0 mi East 6.9 mph - N/A   Overcast
7:34 PM 24.8 °F 17.9 °F 21.2 °F 86% 30.11 in 10.0 mi East 5.8 mph - N/A   Overcast
7:54 PM 24.8 °F 19.1 °F 21.2 °F 86% 30.12 in 10.0 mi East 4.6 mph - N/A   Overcast
8:13 PM 24.8 °F 14.6 °F 21.2 °F 86% 30.13 in 10.0 mi East 10.4 mph 17.3 mph N/A   Overcast
8:34 PM 24.8 °F 14.6 °F 21.2 °F 86% 30.13 in 10.0 mi East 10.4 mph 18.4 mph N/A   Overcast
8:54 PM 24.8 °F 14.6 °F 21.2 °F 86% 30.13 in 10.0 mi East 10.4 mph - N/A   Overcast
9:13 PM 24.8 °F 17.9 °F 21.2 °F 86% 30.13 in 10.0 mi East 5.8 mph - N/A   Overcast
9:34 PM 24.8 °F 14.6 °F 21.2 °F 86% 30.13 in 10.0 mi East 10.4 mph 17.3 mph N/A   Overcast
9:54 PM 24.8 °F 16.9 °F 19.4 °F 80% 30.13 in 10.0 mi East 6.9 mph - N/A   Overcast
10:13 PM 24.8 °F 17.9 °F 19.4 °F 80% 30.13 in 10.0 mi East 5.8 mph - N/A   Overcast
10:33 PM 24.8 °F 16.9 °F 19.4 °F 80% 30.14 in 10.0 mi East 6.9 mph - N/A   Overcast
10:54 PM 24.8 °F 17.9 °F 19.4 °F 80% 30.14 in 10.0 mi East 5.8 mph - N/A   Overcast
11:13 PM 24.8 °F 17.9 °F 19.4 °F 80% 30.15 in 10.0 mi ENE 5.8 mph - N/A   Overcast
11:33 PM 24.8 °F 16.9 °F 21.2 °F 86% 30.14 in 10.0 mi East 6.9 mph - N/A   Overcast
11:54 PM 24.8 °F 19.1 °F 21.2 °F 86% 30.14 in 10.0 mi East 4.6 mph - N/A   Overcast